K4FB Weather Reports


time (UTC)temp
F
wind
direction
speed
knots
gust
knots
rain 1hr
in
rain 24hr
in
rain mn
in
humidity
%
barometer
mb
20260502130503 74 213 5.2 11.3 0.00 0.00 0.00 87 1011.7
20260502123004 71 207 1.7 7.8 0.00 0.00 0.00 96 1011.6
20260502122003 70 160 4.3 8.7 0.00 0.00 0.00 96 1011.5
20260502121503 70 161 3.5 7.0 0.00 0.00 0.00 96 1011.3
20260502121005 70 206 3.5 7.8 0.00 0.00 0.00 96 1011.3
20260502120504 70 197 5.2 7.8 0.00 0.00 0.00 96 1011.4
20260502115504 69 181 5.2 8.7 0.00 0.00 0.00 96 1011.6
20260502115003 69 189 4.3 7.8 0.00 0.00 0.00 96 1011.5
20260502114508 69 184 2.6 7.8 0.00 0.00 0.00 96 1011.5
20260502114003 69 180 2.6 6.1 0.00 0.00 0.00 96 1011.6
20260502113503 69 180 1.7 4.3 0.00 0.00 0.00 96 1011.6
20260502113006 69 192 0.9 3.5 0.00 0.00 0.00 96 1011.6
20260502111508 69 188 0.9 2.6 0.00 0.00 0.00 96 1011.4
20260502111003 68 189 0.9 2.6 0.00 0.00 0.00 96 1011.5
20260502110503 68 187 0.0 2.6 0.00 0.00 0.00 96 1011.4
20260502105504 68 183 0.9 2.6 0.00 0.00 0.00 96 1011.3
20260502105003 68 182 0.0 1.7 0.00 0.00 0.00 96 1011.3
20260502104513 68 182 0.0 1.7 0.00 0.00 0.00 96 1011.2
20260502104003 68 182 0.0 1.7 0.00 0.00 0.00 96 1011.2
20260502103503 68 182 0.0 2.6 0.00 0.00 0.00 96 1011.0
20260502103011 67 182 0.0 2.6 0.00 0.00 0.00 96 1010.8
20260502102503 67 182 0.9 2.6 0.00 0.00 0.00 96 1010.7
20260502102003 67 181 0.0 2.6 0.00 0.00 0.00 96 1010.7
20260502101508 67 190 0.0 2.6 0.00 0.00 0.00 96 1010.9
20260502101002 66 181 0.9 2.6 0.00 0.00 0.00 95 1010.9
20260502100502 66 176 0.0 2.6 0.00 0.00 0.00 95 1011.0
20260502091508 66 231 0.0 0.0 0.00 0.00 0.00 95 1011.7
20260502091003 66 231 0.0 0.0 0.00 0.00 0.00 94 1011.7
20260502090502 66 231 0.0 0.0 0.00 0.00 0.00 94 1011.6
20260502071517 67 231 0.0 0.0 0.00 0.00 0.00 93 1012.0
20260502071004 68 231 0.0 0.0 0.00 0.00 0.00 93 1012.0
20260502070017 68 231 0.0 0.0 0.00 0.00 0.00 93 1012.1
20260502065507 68 231 0.0 0.0 0.00 0.00 0.00 93 1012.1
20260502065011 68 231 0.0 0.0 0.00 0.00 0.00 94 1012.2
20260502064517 68 231 0.0 0.0 0.00 0.00 0.00 93 1012.2
20260502064007 68 231 0.0 0.0 0.00 0.00 0.00 93 1012.2
20260502063504 68 231 0.0 0.0 0.00 0.00 0.00 93 1012.3
20260502063018 68 231 0.0 0.0 0.00 0.00 0.00 93 1012.3
20260502062509 68 231 0.0 0.0 0.00 0.00 0.00 93 1012.3
20260502062006 68 231 0.0 0.0 0.00 0.00 0.00 93 1012.3
20260502061515 68 231 0.0 0.0 0.00 0.00 0.00 93 1012.5
20260502061004 68 231 0.0 0.0 0.00 0.00 0.00 93 1012.6
20260502060507 68 231 0.0 0.0 0.00 0.00 0.00 92 1012.5
20260502060012 68 231 0.0 0.0 0.00 0.00 0.00 92 1012.6
20260502055505 68 231 0.0 0.0 0.00 0.00 0.00 93 1012.5
20260502055006 69 231 0.0 0.0 0.00 0.00 0.00 92 1012.4
20260502054516 69 231 0.0 0.0 0.00 0.00 0.00 92 1012.4
20260502053504 69 231 0.0 0.0 0.00 0.00 0.00 92 1012.4
20260502053016 69 231 0.0 0.9 0.00 0.00 0.00 92 1012.6
20260502052504 69 231 0.0 0.9 0.00 0.00 0.00 92 1012.7
20260502052008 69 231 0.0 0.9 0.00 0.00 0.00 92 1012.8
20260502051518 69 231 0.0 1.7 0.00 0.00 0.00 92 1012.8
20260502051003 69 231 0.0 1.7 0.00 0.00 0.00 92 1012.8
20260502050505 69 231 0.0 1.7 0.00 0.00 0.00 91 1012.7
20260502050005 69 231 0.0 0.9 0.00 0.00 0.00 90 1012.6
20260502045503 69 231 0.0 0.9 0.00 0.00 0.00 91 1012.6
20260502045009 69 231 0.0 0.9 0.00 0.00 0.00 91 1012.7
20260502044505 69 231 0.0 0.0 0.00 0.00 0.00 90 1012.8
20260502044002 70 231 0.0 0.0 0.00 0.00 0.00 90 1012.8
20260502043505 70 231 0.0 0.0 0.00 0.00 0.00 89 1012.8
20260502043014 70 231 0.0 0.0 0.00 0.00 0.00 89 1012.7
20260502041517 70 231 0.0 0.0 0.00 0.00 0.00 88 1012.8
20260502041004 71 231 0.0 0.0 0.00 0.00 0.00 87 1012.7
20260502040500 71 231 0.0 0.0 0.00 0.00 0.00 87 1012.8
20260502035503 71 231 0.0 1.7 0.00 0.00 0.00 87 1012.7
20260502035003 71 231 0.0 1.7 0.00 0.00 0.00 87 1012.7
20260502034507 72 231 0.0 1.7 0.00 0.00 0.00 86 1012.9
20260502034006 72 231 0.0 2.6 0.00 0.00 0.00 86 1012.9
20260502033504 72 231 0.0 2.6 0.00 0.00 0.00 86 1012.9
20260502033011 72 231 0.9 2.6 0.00 0.00 0.00 85 1012.8
20260502032506 72 230 0.9 1.7 0.00 0.00 0.00 85 1012.7
20260502032003 72 230 0.0 2.6 0.00 0.00 0.00 85 1012.6
20260502031503 73 229 0.9 2.6 0.00 0.00 0.00 84 1012.8
20260502030501 73 229 0.9 2.6 0.00 0.00 0.00 83 1012.7
20260502030022 73 225 0.9 3.5 0.00 0.00 0.00 83 1012.7
20260502025503 73 236 0.9 3.5 0.00 0.00 0.00 83 1012.7
20260502025003 74 236 1.7 3.5 0.00 0.00 0.00 83 1012.7
20260502024506 74 229 0.9 3.5 0.00 0.00 0.00 82 1012.8
20260502024003 74 237 0.9 3.5 0.00 0.00 0.00 82 1012.8
20260502023503 74 257 0.9 3.5 0.00 0.00 0.00 81 1012.8
20260502023008 74 236 1.7 4.3 0.00 0.00 0.00 81 1012.8
20260502022504 74 235 1.7 4.3 0.00 0.00 0.00 81 1012.7
20260502022006 74 235 1.7 5.2 0.00 0.00 0.00 80 1012.6
20260502021507 75 238 2.6 5.2 0.00 0.00 0.00 79 1012.7
20260502021004 75 244 1.7 5.2 0.00 0.00 0.00 78 1012.7
20260502020504 75 229 1.7 5.2 0.00 0.00 0.00 78 1012.7
20260502020008 75 262 0.9 5.2 0.00 0.00 0.00 77 1012.6
20260502015505 75 248 0.9 4.3 0.00 0.00 0.00 1012.6
20260502015006 75 240 1.7 5.2 0.00 0.00 0.00 75 1012.5
20260502014505 76 232 1.7 7.0 0.00 0.00 0.00 75 1012.4
20260502014002 76 234 2.6 7.0 0.00 0.00 0.00 75 1012.3
20260502013503 76 241 1.7 5.2 0.00 0.00 0.00 73 1012.2
20260502013021 76 236 0.9 5.2 0.00 0.00 0.00 71 1012.2
20260502012503 77 231 2.6 4.3 0.00 0.00 0.00 69 1012.1
20260502012004 77 238 2.6 4.3 0.00 0.00 0.00 68 1012.0
20260502011508 78 234 1.7 3.5 0.00 0.00 0.00 67 1012.0
20260502011004 78 236 1.7 5.2 0.00 0.00 0.00 66 1012.0
20260502010507 78 253 1.7 7.0 0.00 0.00 0.00 66 1012.0
20260502010012 78 253 1.7 7.0 0.00 0.00 0.00 65 1011.9
20260502005504 79 253 3.5 7.0 0.00 0.00 0.00 65 1011.9
20260502005003 79 271 2.6 7.0 0.00 0.00 0.00 63 1011.8
20260502004510 79 282 2.6 7.0 0.00 0.00 0.00 63 1011.9
20260502004007 79 283 0.9 6.1 0.00 0.00 0.00 63 1011.7
20260502003504 80 263 0.9 7.8 0.00 0.00 0.00 62 1011.6
20260502003006 80 264 3.5 8.7 0.00 0.00 0.00 61 1011.7
20260502002503 80 242 3.5 8.7 0.00 0.00 0.00 60 1011.5
20260502002003 81 252 3.5 7.8 0.00 0.00 0.00 59 1011.4
20260502001506 81 238 3.5 8.7 0.00 0.00 0.00 57 1011.4
20260502001003 81 264 4.3 9.6 0.00 0.00 0.00 57 1011.4
20260502000503 82 243 5.2 11.3 0.00 0.00 0.00 57 1011.3
20260502000017 82 270 6.1 11.3 0.00 0.00 0.00 57 1011.3
20260501235503 82 255 5.2 9.6 0.00 0.00 0.00 56 1011.2
20260501235003 83 265 4.3 8.7 0.00 0.00 0.00 56 1011.2
20260501234514 83 271 2.6 8.7 0.00 0.00 0.00 55 1011.1
20260501234004 84 241 4.3 8.7 0.00 0.00 0.00 54 1011.0
20260501233504 84 188 3.5 8.7 0.00 0.00 0.00 55 1010.9
20260501233015 84 259 4.3 7.8 0.00 0.00 0.00 54 1010.8
20260501232507 85 235 4.3 9.6 0.00 0.00 0.00 53 1010.8
20260501232003 85 249 4.3 10.4 0.00 0.00 0.00 52 1010.7
20260501231504 86 264 7.0 10.4 0.00 0.00 0.00 51 1010.7
20260501231004 86 218 5.2 11.3 0.00 0.00 0.00 50 1010.6
20260501230503 87 271 4.3 12.2 0.00 0.00 0.00 49 1010.6
20260501230008 88 238 4.3 12.2 0.00 0.00 0.00 47 1010.4
20260501225503 89 202 6.1 10.4 0.00 0.00 0.00 46 1010.3
20260501225005 89 209 5.2 10.4 0.00 0.00 0.00 44 1010.3
20260501224507 90 220 5.2 9.6 0.00 0.00 0.00 43 1010.3
20260501224008 90 223 4.3 7.8 0.00 0.00 0.00 42 1010.3
20260501223506 91 252 4.3 8.7 0.00 0.00 0.00 42 1010.3
20260501223006 91 194 6.1 9.6 0.00 0.00 0.00 41 1010.3
20260501222504 91 265 4.3 9.6 0.00 0.00 0.00 41 1010.4
20260501222008 91 234 6.1 8.7 0.00 0.00 0.00 40 1010.3
20260501221522 92 236 4.3 11.3 0.00 0.00 0.00 41 1010.2
20260501221005 93 229 4.3 11.3 0.00 0.00 0.00 40 1010.2
20260501220008 93 249 5.2 9.6 0.00 0.00 0.00 39 1010.1
20260501215504 93 234 5.2 9.6 0.00 0.00 0.00 40 1010.1
20260501215005 93 285 4.3 12.2 0.00 0.00 0.00 39 1010.0
20260501214512 93 227 4.3 12.2 0.00 0.00 0.00 41 1010.1
20260501214003 93 265 5.2 9.6 0.00 0.00 0.00 41 1010.2
20260501213507 92 190 5.2 9.6 0.00 0.00 0.00 41 1010.2
20260501213017 91 221 6.1 9.6 0.00 0.00 0.00 42 1010.2
20260501212507 91 217 5.2 10.4 0.00 0.00 0.00 42 1010.2
20260501212007 91 214 3.5 10.4 0.00 0.00 0.00 44 1010.2
20260501211514 91 198 5.2 12.2 0.00 0.00 0.00 42 1010.1
20260501211009 91 186 5.2 12.2 0.00 0.00 0.00 42 1010.2
20260501210509 91 237 5.2 12.2 0.00 0.00 0.00 43 1010.1
20260501205007 92 198 3.5 10.4 0.00 0.00 0.00 42 1010.2
20260501204510 93 197 7.0 12.2 0.00 0.00 0.00 41 1010.3
20260501204007 94 254 5.2 12.2 0.00 0.00 0.00 40 1010.3
20260501203503 94 232 7.0 10.4 0.00 0.00 0.00 40 1010.3
20260501203013 95 193 2.6 10.4 0.00 0.00 0.00 42 1010.2
20260501202504 95 203 6.1 13.9 0.00 0.00 0.00 39 1010.4
20260501202004 95 233 7.0 13.9 0.00 0.00 0.00 41 1010.5
20260501201520 95 240 7.0 13.9 0.00 0.00 0.00 41 1010.6
20260501201008 94 259 5.2 12.2 0.00 0.00 0.00 41 1010.6
20260501200508 94 250 7.0 16.5 0.00 0.00 0.00 40 1010.6
20260501200017 95 227 7.8 16.5 0.00 0.00 0.00 40 1010.7
20260501195509 95 247 3.5 13.0 0.00 0.00 0.00 40 1010.9
20260501195004 95 233 3.5 12.2 0.00 0.00 0.00 39 1011.0
20260501194515 95 250 4.3 12.2 0.00 0.00 0.00 40 1011.1
20260501194008 95 190 5.2 13.0 0.00 0.00 0.00 42 1011.1
20260501193504 94 192 3.5 13.0 0.00 0.00 0.00 45 1011.1
20260501193025 94 225 5.2 12.2 0.00 0.00 0.00 44 1011.3
20260501192506 94 238 7.0 12.2 0.00 0.00 0.00 41 1011.5
20260501192005 95 212 2.6 12.2 0.00 0.00 0.00 40 1011.7
20260501191517 95 229 7.0 12.2 0.00 0.00 0.00 42 1011.7
20260501191004 95 191 2.6 13.0 0.00 0.00 0.00 44 1011.8
20260501190509 95 222 4.3 13.0 0.00 0.00 0.00 43 1011.9
20260501190028 95 229 4.3 12.2 0.00 0.00 0.00 44 1012.0
20260501185008 94 248 7.0 11.3 0.00 0.00 0.00 43 1012.1
20260501184523 94 267 3.5 9.6 0.00 0.00 0.00 42 1012.1
20260501184009 94 227 3.5 10.4 0.00 0.00 0.00 41 1012.1
20260501183504 93 234 3.5 13.9 0.00 0.00 0.00 47 1012.1
20260501183020 93 213 7.8 13.9 0.00 0.00 0.00 43 1012.2
20260501182505 93 235 1.7 12.2 0.00 0.00 0.00 42 1012.2
20260501182007 93 244 5.2 12.2 0.00 0.00 0.00 45 1012.4
20260501181517 92 288 3.5 8.7 0.00 0.00 0.00 45 1012.3
20260501181006 91 273 0.9 10.4 0.00 0.00 0.00 49 1012.3
20260501180504 92 215 4.3 10.4 0.00 0.00 0.00 45 1012.5
20260501180012 92 231 2.6 9.6 0.00 0.00 0.00 45 1012.4
20260501175508 93 219 7.0 10.4 0.00 0.00 0.00 44 1012.5
20260501175008 93 209 4.3 10.4 0.00 0.00 0.00 46 1012.6
20260501174006 92 292 1.7 10.4 0.00 0.00 0.00 46 1012.8
20260501173507 93 334 2.6 13.0 0.00 0.00 0.00 45 1012.8
20260501173025 93 263 6.1 13.0 0.00 0.00 0.00 44 1012.9
20260501172506 93 183 2.6 8.7 0.00 0.00 0.00 46 1012.9
20260501171526 93 220 4.3 10.4 0.00 0.00 0.00 47 1013.0
20260501170507 92 219 3.5 8.7 0.00 0.00 0.00 47 1013.0
20260501170017 92 201 3.5 8.7 0.00 0.00 0.00 49 1013.0
20260501165506 91 100 1.7 8.7 0.00 0.00 0.00 46 1013.1
20260501165006 91 234 2.6 12.2 0.00 0.00 0.00 47 1013.1
20260501164522 92 227 3.5 12.2 0.00 0.00 0.00 46 1013.2
20260501164007 92 224 2.6 7.0 0.00 0.00 0.00 46 1013.1
20260501163510 92 286 3.5 9.6 0.00 0.00 0.00 49 1013.2
20260501163017 92 212 6.1 9.6 0.00 0.00 0.00 50 1013.2
20260501162507 91 225 3.5 6.1 0.00 0.00 0.00 51 1013.3
20260501162011 91 150 0.9 8.7 0.00 0.00 0.00 51 1013.4
20260501160512 89 246 1.7 7.0 0.00 0.00 0.00 53 1013.7
20260501160018 88 237 3.5 7.0 0.00 0.00 0.00 54 1013.7
20260501155509 88 252 1.7 7.0 0.00 0.00 0.00 59 1013.7
20260501155007 87 246 1.7 7.0 0.00 0.00 0.00 54 1013.7
20260501154518 87 261 1.7 7.0 0.00 0.00 0.00 55 1013.6
20260501154007 87 321 1.7 8.7 0.00 0.00 0.00 55 1013.7
20260501153507 87 294 2.6 8.7 0.00 0.00 0.00 56 1013.7